Location: Constantia
(34.0183°S, 18.4411°E)
Time: 15:34:22
(UTC+00:00)

SJ-12 - Pass Details

Date: 17 February 2020
Orbit: 570 x 584 km, 97.7° (Epoch: 27 March)

Event Time Altitude Azimuth Distance (km) Brightness Sun altitude
Rises 03:02:59 0° 19° (NNE) 2,799 7.3 -16.2°
Reaches altitude 10° 03:05:07 10° 21° (NNE) 1,907 6.5 -15.8°
Maximum altitude 03:09:14 69° 103° (ESE) 634 4.3 -15.0°
Drops below altitude 10° 03:13:24 10° 186° (S) 1,930 6.8 -14.2°
Sets 03:15:35 0° 188° (S) 2,836 7.7 -13.8°
